[[{"header":{"parameterUnit":"m.s-1","parameterCategory":1,"la1":30.2991,"la2":30.254,"lo1":-89.0895,"lo2":-89.0444,"dy":0.0017,"dx":0.0017,"nx":28,"ny":28,"refTime":"2025-07-04T09:00:00:Z","depth":0,"parameterNumber":2,"parameterNumberName":"U-component_of_WINDS"},"data":[0,0,0,0,0,0,0,0,0,0,0,0,0,0,0,0,0,0,0,0,0,0,0,0,0,0,0,0,0,0,0,0,0,0,0,0,0,0,0,0,0,0,0,0,0,0,0,0,0,0,0,0,0,0,0,0,0,0,0.5162,0.5161,0,0.5054,0.5053,0.5052,0.4996,0.4996,0.4996,0.4995,0.4876,0.4873,0.4869,0,0,0,0,0,0,0,0,0,0,0,0,0,0.5311,0.5308,0.5162,0.5161,0.5159,0.5054,0.5053,0.5051,0.4996,0.4996,0.4996,0.4995,0.4877,0.4873,0.4869,0,0,0,0,0,0,0,0,0,0,0,0,0,0.5229,0.5307,0.5162,0.5119,0.5114,0.5055,0.5053,0.5051,0.4996,0.4996,0.4996,0.4995,0.4878,0.4873,0.4869,0.4841,0,0,0.4854,0.4852,0,0,0,0,0,0,0,0,0.5233,0.5223,0.5127,0.5122,0.5116,0.5039,0.5061,0.498,0.4996,0.504,0.4995,0.4995,0.4929,0.492,0.49,0.4835,0.483,0.4854,0.4851,0.4849,0.4848,0,0,0,0,0,0,0,0.5239,0.5227,0.5119,0.5125,0.5119,0.5102,0.509,0.5046,0.4986,0.5036,0.5032,0.5021,0.4926,0.4905,0.4897,0.4828,0.4854,0.485,0.4847,0.4845,0.4734,0.4734,0,0,0,0,0,0,0.5253,0.5233,0.5123,0.5116,0.5176,0.51,0.5087,0.5063,0.4987,0.4975,0.5021,0.5018,0.4913,0.4902,0.4892,0.4854,0.4849,0.4845,0.4842,0.4734,0.4734,0.4734,0,0,0,0,0,0,0.5256,0.5244,0.5127,0.5173,0.5157,0.5097,0.5072,0.5061,0.504,0.4975,0.4963,0.501,0.4912,0.4899,0.4855,0.4849,0.4842,0.4838,0.4734,0.4734,0.4734,0.4779,0,0,0,0,0,0,0.5261,0.5245,0.5237,0.5174,0.5155,0.5094,0.5071,0.5059,0.5033,0.5029,0.4962,0.4951,0.4911,0.4862,0.485,0.4843,0.4834,0.4734,0.4734,0.4734,0.4777,0.478,0.4782,0,0,0,0,0,0.5267,0.5252,0.5236,0.5223,0.5143,0.5094,0.5083,0.5041,0.5033,0.5022,0.498,0.4953,0.4852,0.4858,0.4844,0.4835,0.4735,0.4734,0.4734,0.4776,0.478,0.4782,0,0,0,0,0,0,0.5312,0.5242,0.5225,0.519,0.5149,0.5085,0.507,0.5045,0.5003,0.5001,0.4947,0.4932,0.4893,0.4859,0.4867,0.4803,0.479,0.4787,0.4827,0.483,0.4832,0.4841,0.483,0,0,0,0,0,0.5319,0.5288,0.5227,0.5202,0.5183,0.513,0.5107,0.5078,0.5032,0.5013,0.4968,0.4922,0.488,0.4853,0.481,0.4772,0.4756,0.4759,0.4762,0.4764,0.4762,0.4738,0.4738,0.4733,0.4733,0.4733,0,0,0.5331,0.5289,0.5272,0.521,0.5175,0.5141,0.5115,0.5081,0.5055,0.5007,0.4963,0.4929,0.4873,0.4832,0.4811,0.4802,0.4759,0.4764,0.4766,0.4762,0.4737,0.4738,0.4738,0.4733,0.4733,0.4733,0,0,0.5336,0.5302,0.5277,0.5243,0.5191,0.5156,0.515,0.509,0.5066,0.5022,0.4985,0.4951,0.488,0.4842,0.4813,0.4804,0.4776,0.4791,0.4804,0.4781,0.4781,0.4781,0.4777,0.4776,0.4789,0.4789,0.4789,0,0.5357,0.5308,0.5266,0.5235,0.5207,0.5166,0.5139,0.5106,0.5042,0.5023,0.5015,0.4925,0.4884,0.4833,0.4831,0.4809,0.4799,0.4798,0.4785,0.4785,0.4784,0.4779,0.4778,0.4791,0.4791,0.4791,0.4791,0,0.5336,0.5302,0.5288,0.523,0.5201,0.5171,0.5123,0.5098,0.5071,0.5036,0.4991,0.4941,0.4888,0.4873,0.4846,0.4817,0.4814,0.4796,0.4782,0.4788,0.4782,0.478,0.4794,0.4794,0.4793,0.4793,0,0,0.5366,0.5287,0.5282,0.5256,0.5195,0.5167,0.5134,0.5085,0.5064,0.502,0.499,0.4931,0.4915,0.4882,0.485,0.483,0.4824,0.4814,0.4812,0.4817,0.4788,0.4802,0.4801,0.4806,0.4806,0.4805,0.4793,0,0.5362,0.5306,0.5268,0.5225,0.5192,0.5152,0.5123,0.5081,0.5047,0.5012,0.4973,0.4932,0.4914,0.4894,0.4873,0.483,0.4818,0.483,0.4775,0.4773,0.479,0.4798,0.4812,0.4802,0.4791,0.479,0.479,0,0.535,0.5312,0.5267,0.521,0.5195,0.517,0.5121,0.5089,0.504,0.5016,0.4981,0.4948,0.4909,0.4898,0.4842,0.4851,0.4826,0.4801,0.4799,0.4792,0.4782,0.479,0.4798,0.4797,0.4786,0.4786,0.4787,0,0.5377,0.5313,0.5278,0.5256,0.5189,0.5172,0.5142,0.5094,0.5066,0.5022,0.5004,0.4955,0.4928,0.4889,0.4843,0.484,0.4791,0.4777,0.4768,0.4769,0.4759,0.476,0.4763,0.4744,0.4744,0.4744,0.4744,0,0.5376,0.535,0.5289,0.5267,0.5235,0.519,0.5159,0.5126,0.5082,0.5051,0.5012,0.4983,0.4924,0.4886,0.4849,0.4808,0.4795,0.4773,0.4764,0.4777,0.478,0.4759,0.4758,0.4743,0.4744,0.4744,0.4744,0,0.54,0.5358,0.5317,0.5258,0.5242,0.5221,0.5169,0.5144,0.5109,0.507,0.5057,0.5,0.4954,0.4905,0.4841,0.4816,0.4775,0.4762,0.4793,0.4788,0.4782,0.4783,0.4771,0.4767,0.4752,0.4752,0.4752,0,0.5402,0.5382,0.5321,0.5299,0.5271,0.5236,0.5209,0.5162,0.5135,0.5077,0.5059,0.5011,0.497,0.4897,0.4848,0.4798,0.4783,0.4782,0.4775,0.4789,0.4782,0.4784,0.478,0.4784,0.4785,0.4785,0.4786,0,0.5411,0.5391,0.5355,0.5312,0.5281,0.5244,0.5205,0.5188,0.5133,0.5104,0.5058,0.5027,0.4963,0.4914,0.4859,0.4824,0.4795,0.4789,0.4784,0.4796,0.4815,0.4804,0.4799,0.4789,0.4788,0.4788,0.4788,0.4788,0.5423,0.5403,0.5357,0.5318,0.5284,0.5248,0.5223,0.5185,0.5148,0.5094,0.5068,0.5022,0.4971,0.4894,0.4861,0.4822,0.4813,0.4806,0.4804,0.4803,0.4806,0.4822,0.4811,0.4811,0.4811,0.4811,0.4811,0,0.5428,0.5398,0.5362,0.531,0.5279,0.5257,0.5213,0.5187,0.5148,0.5105,0.5066,0.5012,0.4965,0.4913,0.4862,0.484,0.4825,0.4828,0.4829,0.4821,0.4817,0.4827,0.4841,0.4841,0.4841,0.4841,0.4841,0.4841,0.5428,0.5392,0.5367,0.5314,0.5281,0.5239,0.5215,0.5181,0.5146,0.509,0.5052,0.5019,0.4971,0.4916,0.487,0.4856,0.4838,0.4845,0.4826,0.4824,0.4821,0.4819,0.4827,0.4842,0.4842,0.4833,0.4833,0.4833]},{"header":{"parameterUnit":"m.s-1","parameterCategory":1,"la1":30.2991,"la2":30.254,"lo1":-89.0895,"lo2":-89.0444,"dy":0.0017,"dx":0.0017,"nx":28,"ny":28,"refTime":"2025-07-04T09:00:00:Z","depth":0,"parameterNumber":3,"parameterNumberName":"V-component_of_WINDS"},"data":[0,0,0,0,0,0,0,0,0,0,0,0,0,0,0,0,0,0,0,0,0,0,0,0,0,0,0,0,0,0,0,0,0,0,0,0,0,0,0,0,0,0,0,0,0,0,0,0,0,0,0,0,0,0,0,0,0,0,-1.9572,-1.9571,0,-1.9544,-1.9544,-1.9543,-1.9502,-1.9501,-1.95,-1.95,-1.9471,-1.9471,-1.9471,0,0,0,0,0,0,0,0,0,0,0,0,0,-1.9587,-1.9587,-1.9572,-1.9571,-1.9571,-1.9544,-1.9544,-1.9543,-1.9502,-1.9501,-1.95,-1.9499,-1.9471,-1.9471,-1.9471,0,0,0,0,0,0,0,0,0,0,0,0,0,-1.9572,-1.9587,-1.9572,-1.9547,-1.9545,-1.9544,-1.9544,-1.9543,-1.9502,-1.9501,-1.95,-1.9499,-1.9471,-1.9471,-1.9471,-1.9492,0,0,-1.947,-1.947,0,0,0,0,0,0,0,0,-1.9573,-1.9571,-1.9551,-1.9549,-1.9546,-1.9525,-1.9539,-1.9526,-1.9502,-1.9518,-1.95,-1.9498,-1.949,-1.9488,-1.9485,-1.9491,-1.949,-1.947,-1.947,-1.947,-1.947,0,0,0,0,0,0,0,-1.9574,-1.9572,-1.9561,-1.9551,-1.9548,-1.9537,-1.9534,-1.9536,-1.9511,-1.9517,-1.9514,-1.9511,-1.9488,-1.9486,-1.9484,-1.9489,-1.947,-1.947,-1.947,-1.947,-1.9509,-1.951,0,0,0,0,0,0,-1.9579,-1.9573,-1.9562,-1.956,-1.9557,-1.9538,-1.9534,-1.9533,-1.951,-1.9506,-1.9512,-1.9509,-1.9486,-1.9485,-1.9483,-1.9505,-1.947,-1.947,-1.947,-1.9507,-1.9509,-1.951,0,0,0,0,0,0,-1.9579,-1.9578,-1.9563,-1.9566,-1.9563,-1.9538,-1.9538,-1.9533,-1.953,-1.9507,-1.9502,-1.9514,-1.9485,-1.9483,-1.949,-1.9504,-1.947,-1.947,-1.9506,-1.9508,-1.9509,-1.955,0,0,0,0,0,0,-1.958,-1.9578,-1.9587,-1.9566,-1.9563,-1.957,-1.9539,-1.9533,-1.953,-1.9526,-1.9507,-1.9503,-1.9484,-1.949,-1.949,-1.9503,-1.947,-1.9505,-1.9507,-1.9509,-1.9548,-1.9553,-1.9558,0,0,0,0,0,-1.958,-1.96,-1.9587,-1.9586,-1.9573,-1.9571,-1.9569,-1.9547,-1.9532,-1.9539,-1.9524,-1.9504,-1.9503,-1.9491,-1.949,-1.9504,-1.9504,-1.9506,-1.9509,-1.9545,-1.9552,-1.9558,0,0,0,0,0,0,-1.9622,-1.9596,-1.9583,-1.9596,-1.9586,-1.9564,-1.9573,-1.9556,-1.955,-1.9546,-1.9519,-1.9515,-1.9525,-1.9515,-1.9503,-1.9522,-1.95,-1.9502,-1.9528,-1.9534,-1.9539,-1.9541,-1.947,0,0,0,0,0,-1.9633,-1.9634,-1.9612,-1.9625,-1.9621,-1.9598,-1.9597,-1.9581,-1.9569,-1.9565,-1.955,-1.954,-1.9536,-1.9535,-1.9531,-1.9546,-1.954,-1.9555,-1.956,-1.9564,-1.9566,-1.9572,-1.9577,-1.9518,-1.9518,-1.9518,0,0,-1.9655,-1.9641,-1.9644,-1.9633,-1.9624,-1.9625,-1.9595,-1.9598,-1.9598,-1.9565,-1.957,-1.9559,-1.9545,-1.9555,-1.9559,-1.9548,-1.9581,-1.9568,-1.9571,-1.9571,-1.9575,-1.958,-1.9585,-1.952,-1.9519,-1.9519,0,0,-1.9696,-1.9686,-1.9695,-1.9687,-1.9672,-1.9657,-1.9659,-1.964,-1.9631,-1.9636,-1.9611,-1.961,-1.9606,-1.9597,-1.9592,-1.9628,-1.9609,-1.9628,-1.9654,-1.966,-1.9664,-1.9668,-1.9679,-1.9684,-1.963,-1.963,-1.963,0,-1.9725,-1.9726,-1.9703,-1.9706,-1.9702,-1.9673,-1.9681,-1.9674,-1.9659,-1.9657,-1.9644,-1.9637,-1.9626,-1.9633,-1.9641,-1.9639,-1.964,-1.9629,-1.9666,-1.9669,-1.9673,-1.9683,-1.9687,-1.9632,-1.9632,-1.9632,-1.9632,0,-1.9761,-1.9762,-1.9772,-1.9758,-1.9755,-1.9761,-1.9739,-1.9738,-1.9722,-1.9708,-1.9712,-1.9698,-1.9689,-1.969,-1.9675,-1.9694,-1.9687,-1.9671,-1.9647,-1.9681,-1.969,-1.9694,-1.9636,-1.9635,-1.9634,-1.9634,0,0,-1.9827,-1.98,-1.9804,-1.9796,-1.9779,-1.9779,-1.9783,-1.9775,-1.9775,-1.9766,-1.9768,-1.9765,-1.9749,-1.9743,-1.9726,-1.9731,-1.9759,-1.9713,-1.9713,-1.9721,-1.9777,-1.9789,-1.9794,-1.9746,-1.9747,-1.9747,-1.9777,0,-1.9862,-1.9869,-1.9848,-1.986,-1.9859,-1.9831,-1.9835,-1.9824,-1.9811,-1.9808,-1.9793,-1.9791,-1.9771,-1.9767,-1.9771,-1.9755,-1.9769,-1.9752,-1.9746,-1.9746,-1.9749,-1.9799,-1.9811,-1.984,-1.9781,-1.9782,-1.9782,0,-1.9905,-1.9897,-1.9909,-1.9889,-1.9888,-1.9892,-1.9883,-1.9881,-1.9868,-1.9857,-1.985,-1.9831,-1.9833,-1.9812,-1.9814,-1.9803,-1.9799,-1.9791,-1.9791,-1.9789,-1.9765,-1.9796,-1.9849,-1.9853,-1.9788,-1.9787,-1.9787,0,-1.9949,-1.9942,-1.9948,-1.9943,-1.9921,-1.9924,-1.9915,-1.99,-1.9896,-1.9888,-1.9885,-1.9877,-1.9872,-1.9866,-1.9844,-1.9831,-1.9847,-1.9825,-1.9838,-1.9838,-1.9841,-1.9841,-1.9893,-1.9842,-1.9842,-1.9842,-1.9842,0,-1.999,-1.9998,-1.9967,-1.9971,-1.9978,-1.9954,-1.9962,-1.995,-1.9937,-1.9937,-1.9912,-1.9912,-1.9885,-1.9881,-1.9865,-1.9867,-1.9866,-1.9857,-1.9852,-1.9858,-1.9859,-1.9854,-1.9851,-1.9843,-1.9843,-1.9843,-1.9842,0,-2.004,-2.0021,-2.0025,-2.0003,-1.9998,-2.0004,-1.9985,-1.9987,-1.9972,-1.9972,-1.997,-1.9947,-1.9941,-1.992,-1.9909,-1.9898,-1.9905,-1.9897,-1.991,-1.9907,-1.992,-1.9918,-1.997,-1.9974,-1.9922,-1.9922,-1.9923,0,-2.0067,-2.0072,-2.0051,-2.0049,-2.0041,-2.0039,-2.0035,-2.0011,-2.0007,-1.9992,-1.9995,-1.9988,-1.9981,-1.9973,-1.9955,-1.9946,-1.9936,-1.9955,-1.9935,-1.994,-1.9934,-1.9934,-1.9933,-1.9959,-1.9959,-1.996,-1.996,0,-2.0116,-2.0106,-2.0101,-2.0092,-2.0088,-2.008,-2.0071,-2.0071,-2.0044,-2.0041,-2.0035,-2.003,-2.0019,-2.0011,-2.0,-1.9989,-1.997,-1.9967,-1.9969,-1.9975,-1.9981,-1.9976,-1.992,-1.9966,-1.9965,-1.9965,-1.9965,-1.9964,-2.0154,-2.0157,-2.0142,-2.0137,-2.0128,-2.0119,-2.0119,-2.0104,-2.0099,-2.0088,-2.0075,-2.007,-2.0055,-2.0038,-2.0028,-2.0024,-2.0013,-2.0017,-2.0018,-2.0018,-2.0021,-1.9983,-2.0022,-2.0022,-2.0022,-2.0021,-2.0021,0,-2.02,-2.0189,-2.0185,-2.0172,-2.0168,-2.0151,-2.014,-2.0137,-2.0134,-2.0122,-2.0115,-2.0108,-2.01,-2.0081,-2.0071,-2.0071,-2.0062,-2.0069,-2.0068,-2.0065,-2.0032,-2.003,-2.0077,-2.0076,-2.0076,-2.0076,-2.0076,-2.0076,-2.0224,-2.0227,-2.0215,-2.0213,-2.0201,-2.0197,-2.0192,-2.0183,-2.0173,-2.0167,-2.016,-2.0148,-2.0132,-2.0121,-2.0113,-2.0107,-2.0104,-2.0114,-2.0105,-2.0073,-2.0068,-2.0063,-2.0061,-2.0114,-2.0114,-2.0139,-2.0139,-2.0139]}]]